Regional Weather Roundup
Issued by NWS Boston, MA

Home | Current Version | Previous Version | Text Only | Print | Product List | Glossary On
Versions: 1 2 3 4 5 6 7 8 9 10 11 12 13 14 15 16 17 18 19 20 21 22 23 24 25 26 27 28 29 30 31 32 33 34 35 36 37 38 39 40 41 42 43 44 45 46 47 48 49 50
000
ASUS41 KBOX 110810
RWRBOX

REGIONAL WEATHER ROUNDUP
NATIONAL WEATHER SERVICE TAUNTON MA
300 AM EST SUN DEC 11 2016

NOTE:  "FAIR" INDICATES FEW OR NO CLOUDS BELOW 12,000 FEET WITH NO
SIGNIFICANT WEATHER AND/OR OBSTRUCTIONS TO VISIBILITY.

MAZALL-110900-
EASTERN MASSACHUSETTS

CITY           SKY/WX    TMP DP  RH WIND       PRES   REMARKS
BOSTON         CLEAR     22   8  55 NW5       30.46S WCI  16
BEVERLY        CLEAR     12   7  80 NW5       30.45R WCI   4
LAWRENCE       CLEAR     14   9  80 SW3       30.47R
BEDFORD        CLEAR     10   4  76 CALM      30.45R
BLUE HILL        N/A     16   4  59 W6        30.40R WCI   7
NORWOOD        CLEAR      9   5  84 CALM      30.46R
MARSHFIELD     CLEAR     14   9  79 W5        30.46S WCI   6
PLYMOUTH       CLEAR     11   7  84 CALM      30.46R
TAUNTON        CLEAR      8   3  80 CALM      30.46R
NEW BEDFORD    CLEAR     13   9  84 CALM      30.45S
$$

MAZALL-110900-
CAPE COD AND THE ISLANDS

CITY           SKY/WX    TMP DP  RH WIND       PRES   REMARKS
FALMOUTH         N/A     10   7  85 MISG        N/A
HYANNIS        CLEAR     20   9  62 W6        30.44R WCI  12
CHATHAM        PTCLDY    26  13  57 VRB5      30.45R WCI  20
PROVINCETOWN   PTCLDY    27  15  61 NW14G20   30.45R WCI  16
NANTUCKET      CLEAR     26  11  52 NW10      30.45R WCI  16
MARTHAS VNYRD  CLEAR     13   5  70 CALM      30.45S
$$

MAZALL-110900-
CENTRAL AND WESTERN MASSACHUSETTS

CITY           SKY/WX    TMP DP  RH WIND       PRES   REMARKS
WORCESTER      CLEAR     17   9  70 W8        30.38R WCI   7
FITCHBURG      CLEAR     11   5  77 CALM      30.45R
ORANGE         CLEAR      6   4  91 CALM      30.43R
SPRINGFIELD    PTCLDY    10   7  87 CALM      30.44R
WESTFIELD      CLEAR      9   8  96 CALM      30.45R
NORTH ADAMS    CLOUDY    18  12  77 SE3       30.42R
PITTSFIELD     LGT SNOW  15  12  88 CALM      30.36R FOG
$$

RIZALL-110900-
RHODE ISLAND

CITY           SKY/WX    TMP DP  RH WIND       PRES   REMARKS
PROVIDENCE     PTCLDY    16  10  77 CALM      30.46S
NEWPORT        CLEAR     23  13  65 N5        30.44S WCI  17
BLOCK ISLAND   CLEAR     29  15  56 NW7       30.46R WCI  22
SMITHFIELD     CLEAR     13   9  84 CALM      30.44R
WESTERLY       CLEAR     16  11  80 CALM      30.46S
$$

CTZALL-110900-
CONNECTICUT

CITY           SKY/WX    TMP DP  RH WIND       PRES   REMARKS
BRADLEY INTL   PTCLDY    12   8  84 CALM      30.46R
HARTFORD       CLEAR     15  14  95 CALM      30.47S
BRIDGEPORT     CLEAR     26  20  77 CALM      30.47R
DANBURY        CLEAR     14  11  87 CALM      30.45R
GROTON         CLEAR     21  15  78 N3        30.47R
NEW HAVEN      CLEAR     16  13  88 N3        30.47R
CHESTER        FAIR      23  10  58 CALM      30.44R
MERIDEN        CLEAR     15  10  80 CALM      30.47R
WILLIMANTIC    CLEAR     14   9  80 NE3       30.47R
OXFORD         CLEAR     18  12  79 CALM      30.43R
$$

MEZ002-015-021-024-NHZ003-005-008-011-012-014-VTZ005-008-110900-
NORTHERN NEW ENGLAND

CITY           SKY/WX    TMP DP  RH WIND       PRES   REMARKS
PORTLAND ME    CLEAR     10   4  76 W5        30.44R WCI   2
BANGOR ME      CLEAR     10   3  73 W6        30.38R WCI   0
CONCORD NH     CLEAR      6  -1  73 CALM      30.44R
MANCHESTER NH  CLEAR     12   6  77 CALM      30.43S
NASHUA NH      CLEAR      7   4  87 CALM        N/A
PORTSMOUTH NH  CLEAR     15   8  71 W3        30.43R
JAFFREY NH     CLEAR      4  -1  80 S3        30.38R
KEENE NH       CLEAR      5   2  87 CALM      30.44R
BURLINGTON VT  CLOUDY    17   9  70 S3        30.40S
MT. WASHINGTON SNOWSHWR  -8  -8 100 NW44G52     N/A  VSB 0   WCI -40
$$

NYZ052-076-110900-
EASTERN NEW YORK

CITY           SKY/WX    TMP DP  RH WIND       PRES   REMARKS
ALBANY         PTCLDY    17  13  84 CALM      30.44R
NEW YORK CITY  PTCLDY    31  16  54 NW8       30.49R WCI  23
$$

ANZALL-110900-
MARINE OBSERVATIONS

STATION/POSITION TIME  TEMP    WIND        PRES    VSBY  WAVE
                       AIR SEA DIR/SP/G                  HT/PER
                 (UTC) (F)     (DEG/KT/KT) (MB)    (MI)  (FT/S)
BOSTON BUOY      0750   27 49  310/ 12/ 16 1030.7R         2/ 3
BUZZARDS BAY     0700   28     340/ 11/ 14 1031.7R
NANTUCKET SOUND  NOT AVBL
MASS BAY-STELLWA NOT AVBL
ISLE OF SHOALS   0700   22     280/ 14/ 16 1030.3R
S OF BLOCK IS    0755      53                N/A           3/ 4
$$

......................KEY.........................
  SKY/WX - SKY CONDITION/PRESENT WEATHER
  TMP    - TEMPERATURE IN FAHRENHEIT
  DWPT   - DEWPOINT IN FAHRENHEIT
  RH     - RELATIVE HUMIDITY IN PERCENT
  WIND   - DIRECTION AND SPEED IN MPH
  PRES   - MEAN SEA LEVEL PRESSURE IN INCHES OF HG
  WCI    - WIND CHILL INDEX
  VSB    - VISIBILITY IN MILES
  HX     - HEAT INDEX
  TC     - TEMPERATURE IN CELSIUS
  VRB    - VARIABLE WIND DIRECTION
  N/A    - NOT AVAILABLE



USA.gov is the U.S. government's official web portal to all federal, state and local government web resources and services.